Seattle, WA
on Sunday, January 6, 2013

Sunday
Previous Day Next Day
Daily Summary
 ActualAverageRecord
Temperature
Mean Temperature °F 41°F  
Max Temperature 45°F 46°F 57°F (2003)
Min Temperature 37°F 37°F 14°F (1982)
Degree Days
Heating Degree Days 24 24  
Month to date heating degree days 156 144  
Since 1 July heating degree days 1907 2082  
Cooling Degree Days 0 0  
Month to date cooling degree days 0 0  
Year to date cooling degree days 0 0  
Moisture
Dew Point 37°F   
Average Humidity 84    
Maximum Humidity 92    
Minimum Humidity 76    
Precipitation
Precipitation 0.08 in 0.19 in 1.22 in (1956)
Month to date precipitation 0.46 1.11  
Year to date precipitation 0.46 1.11  
Snow
Snow 0.00 in in 2.00 in (1965)
Month to date snowfall 0.0  
Since 1 July snowfall 0.6  
Snow Depth 0.00 in   
Wind
Wind Speed 7 mph   
Max Wind Speed 16 mph   
Max Gust Speed 21 mph   
Visibility 9 miles   
Events Rain   

Key: T is trace of precipitation, MM is missing value
Source: NWS Daily Summary
Time(PST)TemperatureDew PointHumidity Pressure Visibility Wind DirectionWind SpeedGust SpeedPrecipitationEvents Conditions
12:20 AM 39.2°F 37.4°F 93% 30.14 in 6.0 miles South 11.5 mph - 0.00 in   Overcast
12:46 AM 39.2°F 35.6°F 87% 30.14 in 8.0 miles South 8.1 mph - 0.00 in   Scattered Clouds
12:53 AM 39.0°F 36.0°F 89% 30.18 in 8.0 miles South 8.1 mph - 0.00 in   Scattered Clouds
1:53 AM 37.9°F 36.0°F 93% 30.19 in 7.0 miles SSE 6.9 mph - N/A   Mostly Cloudy
2:53 AM 39.0°F 36.0°F 89% 30.20 in 10.0 miles SSE 8.1 mph - N/A   Mostly Cloudy
4:53 AM 39.9°F 37.0°F 89% 30.17 in 10.0 miles SSE 4.6 mph - N/A   Mostly Cloudy
5:16 AM 39.2°F 37.4°F 93% 30.15 in 10.0 miles ESE 4.6 mph - N/A   Overcast
5:53 AM 39.9°F 37.0°F 89% 30.18 in 10.0 miles South 4.6 mph - 0.00 in Rain Light Rain
6:53 AM 39.0°F 36.0°F 89% 30.18 in 10.0 miles SW 5.8 mph - 0.00 in   Mostly Cloudy
7:32 AM 39.2°F 37.4°F 93% 30.15 in 10.0 miles SSE 5.8 mph - 0.01 in Rain Light Rain
7:53 AM 39.9°F 37.0°F 89% 30.20 in 10.0 miles SSE 8.1 mph - 0.02 in   Overcast
8:53 AM 39.9°F 37.0°F 89% 30.21 in 10.0 miles SSE 5.8 mph - N/A   Overcast
9:53 AM 41.0°F 37.9°F 89% 30.21 in 10.0 miles South 6.9 mph - N/A   Overcast
10:53 AM 43.0°F 37.9°F 82% 30.21 in 10.0 miles SSW 5.8 mph - N/A   Overcast
11:53 AM 44.1°F 39.0°F 82% 30.18 in 10.0 miles SSW 5.8 mph - 0.00 in Rain Light Rain
12:42 PM 44.6°F 37.4°F 76% 30.14 in 10.0 miles SSW 10.4 mph - 0.00 in Rain Light Rain
12:53 PM 44.1°F 39.0°F 82% 30.16 in 10.0 miles SSW 9.2 mph - 0.00 in Rain Light Rain
1:53 PM 44.1°F 39.9°F 85% 30.15 in 10.0 miles South 6.9 mph - 0.00 in   Overcast
2:13 PM 44.6°F 39.2°F 81% 30.12 in 10.0 miles South 4.6 mph - N/A   Overcast
2:53 PM 45.0°F 39.9°F 82% 30.15 in 10.0 miles South 3.5 mph - N/A   Overcast
3:53 PM 45.0°F 37.9°F 76% 30.13 in 10.0 miles South 4.6 mph - N/A   Overcast
4:53 PM 45.0°F 37.9°F 76% 30.12 in 10.0 miles South 6.9 mph - N/A   Overcast
5:53 PM 45.0°F 37.0°F 74% 30.10 in 10.0 miles South 9.2 mph - 0.00 in Rain Light Rain
6:53 PM 44.1°F 35.1°F 71% 30.10 in 10.0 miles SSW 8.1 mph - 0.00 in   Overcast
8:30 PM 42.8°F 37.4°F 81% 30.06 in 10.0 miles SE 9.2 mph - 0.01 in Rain Light Rain
8:53 PM 42.1°F 37.0°F 82% 30.08 in 9.0 miles SE 10.4 mph - 0.01 in Rain Light Rain
9:14 PM 42.8°F 37.4°F 81% 30.04 in 10.0 miles South 11.5 mph - N/A Rain Light Rain
9:53 PM 42.1°F 37.0°F 82% 30.05 in 10.0 miles SE 8.1 mph - 0.02 in Rain Light Rain
10:12 PM 41.0°F 37.4°F 87% 30.01 in 8.0 miles SE 10.4 mph - 0.00 in Rain Light Rain
10:53 PM 41.0°F 37.0°F 86% 30.03 in 6.0 miles ESE 6.9 mph - 0.01 in Rain Light Rain
11:53 PM 41.0°F 37.9°F 89% 30.01 in 5.0 miles Calm Calm - 0.02 in Rain Light Rain
Moon Phase
Jan. 06 Jan. 11 Jan. 18 Jan. 26 Feb. 03
Sunrise:07:56 AM (PST) Moon Rise:02:07 AM (PST)1/6
Sunset:04:34 PM (PST) Moon Set:12:13 PM (PST)1/6

Copyright © 2014 The Weather Underground, Inc.